アトラス彗星

C/2022 E2 ( ATLAS )

English version
Home page
Updated on September 27, 2024

---------------------------------------------------------------------

・ プロフィール

発見日 2022年3月7日
発見光度 18.7等
発見者 Asteroid Terrestrial-Impact Last Alert System (ATLAS) search program

・ 写真集

・ 軌道要素

Epoch 2024 Oct. 17.0 TT = JDT 2460600.5
T 2024 Sept. 14.14024 TT                                Rudenko
q   3.6662724            (2000.0)            P               Q
z  -0.0002892      Peri.   41.73043     -0.03432598     +0.83137966
 +/-0.0000003      Node   125.38063     +0.63731062     -0.40928277
e   1.0010601      Incl.  137.13492     +0.76984213     +0.37589289
>From 2698 observations 2022 Feb. 23-2024 Aug. 31, mean residual 0".5.

・ 星図

・ 光度変化

        m1 = 2.2 + 5 logΔ + 12.5 log r

---------------------------------------------------------------------

軌道要素はM.P.E.C. 2024-R10に掲載されたものです。
星図はステラナビゲータ Ver.10 (アストロアーツ) で作成したものです。
光度グラフはComet for Windowsで作成したものです。

---------------------------------------------------------------------

Copyright(C) Seiichi Yoshida (comet@aerith.net). All rights reserved.